This is the latest recevied weather packets stored in our database for station/object KB1FFS. If no packets are shown the sender has not sent any weather packets the latest 10 day(s).
| Time | Temp. | Humidity | Pressure | Rain* | Wind** | Luminosity | Snow |
|---|---|---|---|---|---|---|---|
| 1787697495 | 40° C | 23% | 1014 hPa | 0 mm | - | 144 W/m² | - |
| 1787697191 | 39.44° C | 23% | 1014 hPa | 0 mm | - | 239 W/m² | - |
| 1787696886 | 39.44° C | 23% | 1013.8 hPa | 0 mm | - | 200 W/m² | - |
| 1787696582 | 40° C | 22% | 1013.9 hPa | 0 mm | - | 300 W/m² | - |
| 1787696277 | 40° C | 23% | 1013.8 hPa | 0 mm | - | 251 W/m² | - |
| 1787695976 | 40° C | 23% | 1013.7 hPa | 0 mm | - | 318 W/m² | - |
| 1787695671 | 40° C | 24% | 1013.4 hPa | 0 mm | - | 375 W/m² | - |
| 1787695368 | 39.44° C | 23% | 1013.5 hPa | 0 mm | - | 383 W/m² | - |
| 1787695067 | 40° C | 23% | 1013.5 hPa | 0 mm | - | 397 W/m² | - |
| 1787694766 | 39.44° C | 24% | 1013.6 hPa | 0 mm | - | 402 W/m² | - |
| 1787694463 | 39.44° C | 24% | 1013.7 hPa | 0 mm | - | 400 W/m² | - |
| 1787694157 | 40° C | 24% | 1013.5 hPa | 0 mm | - | 414 W/m² | - |
| 1787693852 | 40° C | 25% | 1013.5 hPa | 0 mm | - | 438 W/m² | - |
| 1787693549 | 40° C | 25% | 1013.8 hPa | 0 mm | - | 423 W/m² | - |
| 1787693245 | 40° C | 26% | 1013.8 hPa | 0 mm | - | 490 W/m² | - |
| 1787692940 | 40° C | 26% | 1013.8 hPa | 0 mm | - | 528 W/m² | - |
| 1787692636 | 40° C | 27% | 1014 hPa | 0 mm | - | 516 W/m² | - |
| 1787692336 | 39.44° C | 28% | 1014 hPa | 0 mm | - | 523 W/m² | - |
| 1787692030 | 38.89° C | 28% | 1014.3 hPa | 0 mm | - | 533 W/m² | - |
| 1787691729 | 39.44° C | 27% | 1014.1 hPa | 0 mm | - | 294 W/m² | - |
| 1787691428 | 39.44° C | 28% | 1014.2 hPa | 0 mm | - | 409 W/m² | - |
| 1787691122 | 39.44° C | 28% | 1014.2 hPa | 0 mm | - | 337 W/m² | - |
| 1787690818 | 39.44° C | 28% | 1014.5 hPa | 0 mm | - | 393 W/m² | - |
| 1787690517 | 39.44° C | 29% | 1014.5 hPa | 0 mm | - | 605 W/m² | - |
| 1787690213 | 39.44° C | 29% | 1014.5 hPa | 0 mm | - | 365 W/m² | - |
* Rain latest hour (hover to see other rain measurements)
** Current wind speed in m/s (hover to see current wind gust speed)